Flag for Canada Weather past 2 weeks in Kitchener, Ontario, Canada

Now
66 °F

Sunny.


Feels Like: 66 °F
Forecast: 45 / 71 °F
Wind: 7 mph from Northwest

Location: Waterloo Well

Current Time: Aug 28, 2014 at 8:07:28 PM

Latest Report: Aug 28, 2014 at 7:00 PM


Visibility: 9 mi

Pressure: 30.11 "Hg

Humidity: 56%

Dew point: 50 °F

Location of KitchenerLocation

Historic Weather in Kitchener — Graph

°F

Kitchener temperature yesterday

Maximum temperature yesterday: 72 °F (at 12:00 AM)
Minimum temperature yesterday: 54 °F (at 10:00 PM)
Average temperature yesterday: 64 °F

Past Weeks' High & Low Weather Summary

 TemperatureHumidityPressure
High84 °F (Aug 26, 2:00 PM)100% (Aug 17, 5:00 AM)30.19 "Hg (Aug 17, 5:00 AM)
Low45 °F (Aug 19, 5:03 AM)45% (Aug 25, 3:00 PM)29.82 "Hg (Aug 16, 5:50 PM)
Average63 °F82%29.99 "Hg
* Reported Aug 13 7:00 PM — Aug 28 7:00 PM, Kitchener, Weather by CustomWeather, © 2014

Note: Actual official high and low records may vary slightly from our data, if they occured in-between our weather recording intervals... More about our weather records

Advertising

Kitchener weather history for previous 24 hours

 ConditionsComfort  
Time TempWeatherWind HumidityBarometerVisibility
7:00 PM
Aug 28
66 °FSunny.7 mph56%30.11 "Hg9 mi
6:00 PM70 °FScattered clouds.10 mph53%30.11 "Hg9 mi
5:00 PM68 °FSunny.12 mph49%30.11 "Hg9 mi
4:00 PM70 °FScattered clouds.10 mph50%30.11 "Hg9 mi
3:00 PM68 °FPartly sunny.12 mph53%30.12 "Hg9 mi
2:00 PM70 °FScattered clouds.9 mph50%30.13 "Hg9 mi
1:00 PM66 °FScattered clouds.9 mph52%30.13 "Hg9 mi
12:00 PM66 °FScattered clouds.10 mph60%30.14 "Hg9 mi
11:00 AM63 °FBroken clouds.14 mph64%30.14 "Hg9 mi
10:00 AM61 °FSunny.12 mph68%30.15 "Hg9 mi
9:00 AM57 °FSunny.7 mph82%30.14 "Hg9 mi
8:00 AM52 °FSunny.6 mph94%30.13 "Hg9 mi
7:00 AM48 °FClear.7 mph100%30.11 "Hg9 mi
6:00 AM48 °FClear.7 mph94%30.09 "Hg9 mi
5:00 AM48 °FClear.6 mph94%30.08 "Hg9 mi
4:00 AM48 °FClear.6 mph94%30.08 "Hg9 mi
3:00 AM48 °FClear.7 mph94%30.09 "Hg9 mi
2:00 AM50 °FClear.5 mph94%30.09 "Hg9 mi
1:00 AM50 °FClear.6 mph94%30.11 "Hg9 mi
12:00 AM52 °FClear.6 mph88%30.11 "Hg9 mi
11:00 PM
Aug 27
54 °FClear.5 mph88%30.10 "Hg9 mi
10:00 PM54 °FClear.3 mph88%30.09 "Hg9 mi
9:00 PM57 °FSunny.8 mph77%30.10 "Hg9 mi
8:00 PM61 °FSunny.7 mph72%30.09 "Hg9 mi
Weather by CustomWeather, © 2014

See weather overviewHow to use our weather pages